This is the latest recevied weather packets stored in our database for station/object KD9NSC. If no packets are shown the sender has not sent any weather packets the latest 1 day(s).
| Time | Temp. | Humidity | Pressure | Rain* | Wind** | Luminosity | Snow |
|---|---|---|---|---|---|---|---|
| 1777988584 | 7.22° C | 92% | 1011.8 hPa | 1.27 mm | 0 m/s | 11 W/m² | - |
| 1777988280 | 7.22° C | 92% | 1011.8 hPa | 0 mm | 0 m/s | 9 W/m² | - |
| 1777987977 | 7.22° C | 92% | 1011.4 hPa | 0 mm | 0 m/s | 8 W/m² | - |
| 1777987672 | 7.22° C | 91% | 1011.4 hPa | 0 mm | 0 m/s | 8 W/m² | - |
| 1777987369 | 7.22° C | 91% | 1011.1 hPa | 1.78 mm | 0 m/s | 8 W/m² | - |
| 1777987067 | 7.22° C | 90% | 1011 hPa | 1.78 mm | 0 m/s | 7 W/m² | - |
| 1777986763 | 7.22° C | 89% | 1010.8 hPa | 1.78 mm | 0 m/s | 7 W/m² | - |
| 1777986462 | 7.22° C | 88% | 1010.5 hPa | 0 mm | 0 m/s | 6 W/m² | - |
| 1777986160 | 7.22° C | 87% | 1010.3 hPa | 0 mm | 0 m/s | 6 W/m² | - |
| 1777985857 | 7.78° C | 86% | 1010.5 hPa | 0 mm | 0 m/s | 6 W/m² | - |
| 1777985554 | 7.78° C | 85% | 1010.7 hPa | 0 mm | 0 m/s | 6 W/m² | - |
| 1777985251 | 7.78° C | 82% | 1010.7 hPa | 0 mm | 0 m/s | 4 W/m² | - |
| 1777984947 | 8.33° C | 83% | 1010.6 hPa | 0 mm | 0 m/s | 4 W/m² | - |
| 1777984643 | 8.33° C | 80% | 1010.7 hPa | 0 mm | 0 m/s | 5 W/m² | - |
| 1777984340 | 8.33° C | 81% | 1010.4 hPa | 0 mm | 0 m/s | 5 W/m² | - |
| 1777984037 | 8.33° C | 81% | 1010.4 hPa | 0 mm | 0 m/s | 4 W/m² | - |
| 1777983734 | 8.33° C | 83% | 1010.1 hPa | 0 mm | 0 m/s | 3 W/m² | - |
| 1777983430 | 8.33° C | 84% | 1010.2 hPa | 0 mm | 0 m/s | 4 W/m² | - |
| 1777983127 | 8.33° C | 84% | 1010 hPa | 0 mm | 0 m/s | 6 W/m² | - |
| 1777982824 | 8.33° C | 84% | 1009.9 hPa | 0 mm | 0 m/s | 4 W/m² | - |
| 1777982519 | 8.33° C | 85% | 1009.4 hPa | 0 mm | 0 m/s | 4 W/m² | - |
| 1777982213 | 8.33° C | 86% | 1009.3 hPa | 0 mm | 0 m/s | 7 W/m² | - |
| 1777981911 | 8.33° C | 86% | 1009.2 hPa | 0 mm | 0 m/s | 5 W/m² | - |
| 1777981608 | 8.89° C | 86% | 1009.5 hPa | 0 mm | 0 m/s | 5 W/m² | - |
| 1777981304 | 8.33° C | 87% | 1009.5 hPa | 0 mm | 0 m/s | 9 W/m² | - |
* Rain latest hour (hover to see other rain measurements)
** Current wind speed in m/s (hover to see current wind gust speed)